Weather History for KMZZ - October, 2013

Change the Weather History Date:

Thursday, October 24, 2013

  Actual Average (KMIE) Record (KMIE)
Temperature  
Mean Temperature 36 °F 51 °F  
Max Temperature 43 °F 61 °F 80 °F (1963)
Min Temperature 30 °F 41 °F 19 °F (1981)
Degree Days  
Heating Degree Days 28 14  
Month to date heating degree days 258  
Since 1 July heating degree days 359  
Cooling Degree Days 0 0  
Month to date cooling degree days 13  
Year to date cooling degree days 952  
Moisture  
Dew Point 29 °F    
Average Humidity 72    
Maximum Humidity 85    
Minimum Humidity 54    
Precipitation  
Precipitation 0.00 in 0.09 in 1.66 in (2001)
Month to date precipitation 2.28  
Year to date precipitation 33.15  
Sea Level Pressure  
Sea Level Pressure 30.12 in    
Wind  
Wind Speed 9 mph (West)    
Max Wind Speed 16 mph    
Max Gust Speed 18 mph    
Visibility 10 miles    
Events      
T = Trace of Precipitation, MM = Missing Value Source: NWS Daily Summary

Daily Weather History Graph

Daily Weather History Graph

Search for Another Location

Airport or City:

Trip Planner

Search our weather history database for the weather conditions in past years. The results will help you decide how hot, cold, wet, or windy it might be!

Date:

Astronomy

Oct. 24, 2013 Rise Set
Actual Time 8:03 AM EDT 6:49 PM EDT
Civil Twilight 7:35 AM EDT 7:17 PM EDT
Nautical Twilight 7:04 AM EDT 7:49 PM EDT
Astronomical Twilight 6:32 AM EDT 8:20 PM EDT
Moon 11:12 PM EDT (10/24) 1:04 PM EDT (10/24)
Length of Visible Light 11h 41m
Length of Day
10h 45m
Waning Gibbous, 71% of the Moon is Illuminated
Oct 24
Waning Gibbous
Oct 26
Last Quarter
Nov 3
New
Nov 10
First Quarter
Nov 17
Full

Hourly Weather History & Observations

Time (EDT) Temp. Windchill Dew Point Humidity Pressure Visibility Wind Dir Wind Speed Gust Speed Precip Events Conditions
12:15 AM 36.5 °F 31.0 °F 31.1 °F 81% 30.02 in 10.0 mi West 6.9 mph - N/A   Overcast
12:35 AM 36.7 °F 30.5 °F 31.1 °F 80% 30.02 in 10.0 mi West 8.1 mph - N/A   Overcast
12:55 AM 36.9 °F 30.7 °F 31.1 °F 80% 30.02 in 10.0 mi West 8.1 mph - N/A   Overcast
1:15 AM 37.0 °F 29.8 °F 30.4 °F 77% 30.02 in 10.0 mi West 10.4 mph - N/A   Overcast
1:35 AM 37.4 °F 30.3 °F 30.0 °F 75% 30.02 in 10.0 mi West 10.4 mph - N/A   Overcast
1:55 AM 37.4 °F 29.3 °F 29.5 °F 73% 30.02 in 10.0 mi West 12.7 mph - N/A   Overcast
2:15 AM 37.2 °F 29.1 °F 29.8 °F 75% 30.02 in 10.0 mi West 12.7 mph - N/A   Overcast
2:35 AM 37.0 °F 29.3 °F 29.8 °F 75% 30.03 in 10.0 mi West 11.5 mph - N/A   Overcast
2:55 AM 36.9 °F 29.6 °F 30.0 °F 76% 30.03 in 10.0 mi West 10.4 mph - N/A   Overcast
3:15 AM 36.7 °F 28.9 °F 30.2 °F 77% 30.03 in 10.0 mi West 11.5 mph - N/A   Overcast
3:35 AM 36.7 °F 29.9 °F 30.2 °F 77% 30.03 in 10.0 mi West 9.2 mph - N/A   Overcast
3:55 AM 36.5 °F 29.7 °F 30.4 °F 78% 30.03 in 10.0 mi West 9.2 mph - N/A   Overcast
4:15 AM 36.5 °F 30.3 °F 30.7 °F 80% 30.03 in 10.0 mi West 8.1 mph - N/A   Overcast
4:35 AM 36.3 °F 28.9 °F 30.6 °F 80% 30.03 in 10.0 mi West 10.4 mph - N/A   Overcast
4:55 AM 36.1 °F 28.7 °F 30.4 °F 80% 30.03 in 10.0 mi West 10.4 mph - N/A   Overcast
5:15 AM 36.0 °F 29.0 °F 30.4 °F 80% 30.03 in 10.0 mi West 9.2 mph - N/A   Overcast
5:35 AM 36.0 °F 29.6 °F 30.2 °F 80% 30.03 in 10.0 mi WSW 8.1 mph - N/A   Overcast
5:55 AM 35.4 °F 29.7 °F 30.4 °F 82% 30.04 in 10.0 mi West 6.9 mph - N/A   Overcast
6:15 AM 35.1 °F 27.9 °F 30.6 °F 84% 30.04 in 10.0 mi West 9.2 mph - N/A   Overcast
6:35 AM 35.2 °F 28.1 °F 30.6 °F 83% 30.04 in 10.0 mi West 9.2 mph - N/A   Overcast
6:55 AM 35.6 °F 28.6 °F 30.4 °F 81% 30.05 in 10.0 mi West 9.2 mph - N/A   Overcast
7:15 AM 35.6 °F 28.6 °F 30.2 °F 81% 30.05 in 10.0 mi West 9.2 mph - N/A   Overcast
7:35 AM 35.2 °F 28.1 °F 30.0 °F 81% 30.05 in 10.0 mi West 9.2 mph - N/A   Overcast
7:55 AM 34.5 °F 29.4 °F 29.8 °F 83% 30.05 in 10.0 mi WSW 5.8 mph - N/A   Overcast
8:15 AM 34.2 °F 28.2 °F 29.8 °F 84% 30.05 in 10.0 mi WSW 6.9 mph - N/A   Overcast
8:35 AM 34.5 °F 27.9 °F 30.4 °F 85% 30.06 in 10.0 mi WSW 8.1 mph - N/A   Overcast
8:55 AM 35.1 °F 28.6 °F 31.1 °F 85% 30.07 in 10.0 mi WSW 8.1 mph - N/A   Overcast
9:15 AM 36.0 °F 29.0 °F 31.6 °F 84% 30.08 in 10.0 mi WSW 9.2 mph - N/A   Overcast
9:35 AM 36.5 °F 28.7 °F 32.0 °F 84% 30.09 in 10.0 mi WSW 11.5 mph - N/A   Overcast
9:55 AM 37.0 °F 28.9 °F 32.0 °F 82% 30.09 in 7.0 mi West 12.7 mph - N/A   Overcast
10:15 AM 37.4 °F 29.3 °F 32.0 °F 81% 30.10 in 10.0 mi West 12.7 mph - N/A   Overcast
10:35 AM 37.8 °F 30.2 °F 32.0 °F 80% 30.10 in 10.0 mi West 11.5 mph - N/A   Overcast
10:55 AM 38.3 °F 30.9 °F 32.0 °F 78% 30.11 in 10.0 mi West 11.5 mph - N/A   Overcast
11:15 AM 38.8 °F 31.2 °F 31.5 °F 75% 30.11 in 10.0 mi West 12.7 mph - N/A   Overcast
11:35 AM 39.4 °F 32.3 °F 30.7 °F 71% 30.11 in 10.0 mi WNW 11.5 mph - N/A   Overcast
11:55 AM 39.9 °F 32.1 °F 30.2 °F 68% 30.12 in 10.0 mi West 13.8 mph - N/A   Overcast
12:15 PM 40.3 °F 33.0 °F 30.0 °F 67% 30.12 in 7.0 mi WNW 12.7 mph - N/A   Overcast
12:35 PM 40.8 °F 33.7 °F 29.8 °F 65% 30.12 in 10.0 mi WNW 12.7 mph - N/A   Overcast
12:55 PM 41.0 °F 33.5 °F 29.3 °F 63% 30.12 in 10.0 mi West 13.8 mph - N/A   Overcast
1:15 PM 42.3 °F 34.4 °F 29.1 °F 60% 30.12 in 10.0 mi West 16.1 mph - N/A   Overcast
1:35 PM 43.5 °F 36.4 °F 28.8 °F 56% 30.12 in 10.0 mi West 15.0 mph - N/A   Overcast
1:55 PM 43.7 °F 36.9 °F 28.2 °F 54% 30.11 in 10.0 mi West 13.8 mph - N/A   Overcast
2:15 PM 43.2 °F 35.9 °F 28.6 °F 56% 30.12 in 10.0 mi West 15.0 mph 18.4 mph N/A   Overcast
2:35 PM 41.2 °F 36.0 °F 26.1 °F 55% 30.12 in 10.0 mi North 8.1 mph - N/A   Overcast
2:55 PM 41.2 °F 36.0 °F 25.9 °F 55% 30.12 in 10.0 mi WNW 8.1 mph - N/A   Overcast
3:15 PM 42.6 °F 35.2 °F 26.8 °F 54% 30.12 in 10.0 mi WNW 15.0 mph - N/A   Overcast
3:35 PM 41.7 °F 36.1 °F 26.8 °F 55% 30.13 in 10.0 mi NNW 9.2 mph - N/A   Overcast
3:55 PM 40.3 °F 33.9 °F 26.8 °F 59% 30.14 in 10.0 mi NNW 10.4 mph 16.1 mph N/A   Overcast
4:15 PM 40.1 °F 32.4 °F 25.5 °F 56% 30.15 in 10.0 mi NW 13.8 mph - N/A   Overcast
4:35 PM 40.1 °F 34.1 °F 26.1 °F 57% 30.16 in 10.0 mi NNW 9.2 mph 17.3 mph N/A   Overcast
4:55 PM 38.8 °F 33.8 °F 27.5 °F 64% 30.16 in 7.0 mi NW 6.9 mph - N/A   Scattered Clouds
5:15 PM 38.3 °F 32.5 °F 28.2 °F 67% 30.17 in 10.0 mi NW 8.1 mph - N/A   Scattered Clouds
5:35 PM 38.5 °F 33.4 °F 28.4 °F 67% 30.17 in 10.0 mi NW 6.9 mph - N/A   Mostly Cloudy
5:55 PM 38.5 °F 32.7 °F 28.2 °F 67% 30.18 in 10.0 mi WNW 8.1 mph - N/A   Overcast
6:15 PM 38.5 °F 33.4 °F 27.9 °F 66% 30.18 in 10.0 mi WNW 6.9 mph - N/A   Overcast
6:35 PM 38.7 °F 33.6 °F 28.4 °F 67% 30.19 in 10.0 mi West 6.9 mph - N/A   Overcast
6:55 PM 38.3 °F 32.5 °F 29.3 °F 70% 30.19 in 10.0 mi West 8.1 mph - N/A   Overcast
7:15 PM 38.1 °F 33.7 °F 28.4 °F 68% 30.20 in 10.0 mi West 5.8 mph - N/A   Overcast
7:35 PM 37.4 °F 32.1 °F 28.6 °F 70% 30.21 in 10.0 mi West 6.9 mph - N/A   Overcast
7:55 PM 37.4 °F 30.8 °F 28.2 °F 69% 30.22 in 10.0 mi West 9.2 mph - N/A   Overcast
8:15 PM 36.7 °F 29.4 °F 27.1 °F 68% 30.22 in 10.0 mi WNW 10.4 mph - N/A   Mostly Cloudy
8:35 PM 36.5 °F 29.7 °F 25.3 °F 64% 30.23 in 10.0 mi WNW 9.2 mph - N/A   Mostly Cloudy
8:55 PM 36.0 °F 29.0 °F 24.4 °F 63% 30.24 in 10.0 mi WNW 9.2 mph - N/A   Overcast
9:15 PM 35.4 °F 29.7 °F 24.4 °F 64% 30.24 in 10.0 mi WNW 6.9 mph - N/A   Overcast
9:35 PM 34.2 °F 28.2 °F 24.3 °F 67% 30.24 in 10.0 mi WNW 6.9 mph - N/A   Scattered Clouds
9:55 PM 32.4 °F 26.9 °F 24.6 °F 73% 30.25 in 10.0 mi West 5.8 mph - N/A   Clear
10:15 PM 31.5 °F 24.9 °F 24.8 °F 76% 30.25 in 10.0 mi West 6.9 mph - N/A   Clear
10:35 PM 30.7 °F 26.0 °F 24.8 °F 79% 30.26 in 10.0 mi West 4.6 mph - N/A   Clear
10:55 PM 30.2 °F 23.4 °F 25.0 °F 81% 30.27 in 10.0 mi West 6.9 mph - N/A   Clear
11:15 PM 30.7 °F 24.1 °F 24.8 °F 79% 30.27 in 10.0 mi West 6.9 mph - N/A   Clear
11:35 PM 30.7 °F 24.9 °F 25.0 °F 79% 30.27 in 10.0 mi West 5.8 mph - N/A   Clear
11:55 PM 30.2 °F 24.3 °F 25.2 °F 82% 30.27 in 10.0 mi West 5.8 mph - N/A   Clear